Flag for U.S.A. Weather past 2 weeks in Sedona, Arizona, U.S.A.

Now
86 °F

Sunny.


Feels Like: 83 °F
Forecast: 60 / 85 °F
Wind: 13 mph from South

Location: Sedona Airport

Current Time: Jun 2, 2015 at 2:56:29 PM

Latest Report: Jun 2, 2015 at 2:15 PM


Visibility: 10 mi

Pressure: 30.05 "Hg

Humidity: 12%

Dew point: 28 °F

Location of SedonaLocation

Historic Weather in Sedona — Graph

°F

Sedona temperature yesterday

Maximum temperature yesterday: 90 °F (at 11:55 AM)
Minimum temperature yesterday: 66 °F (at 4:55 AM)
Average temperature yesterday: 78 °F

Past Weeks' High & Low Weather Summary

 TemperatureHumidityPressure
High93 °F (May 31, 12:15 PM)77% (May 24, 6:55 PM)30.18 "Hg (May 24, 6:55 PM)
Low46 °F (May 19, 5:35 AM)9% (May 28, 1:40 PM)29.90 "Hg (May 21, 3:55 PM)
Average68 °F30%30.06 "Hg
* Reported May 18 1:55 PM — Jun 2 1:55 PM, Sedona, Weather by CustomWeather, © 2015

Note: Actual official high and low records may vary slightly from our data, if they occured in-between our weather recording intervals... More about our weather records

Advertising

Sedona weather history for previous 24 hours

 ConditionsComfort  
Time TempWeatherWind HumidityBarometerVisibility
1:55 PM
Tue, Jun 2
88 °FSunny.16 mph13%30.06 "Hg10 mi
1:35 PM86 °FPleasantly warm.16 mph12%30.06 "Hg10 mi
1:15 PM88 °FPleasantly warm.17 mph13%30.06 "Hg10 mi
12:55 PM84 °FPleasantly warm.28 mph14%30.06 "Hg10 mi
12:15 PM84 °FSunny.17 mph13%30.08 "Hg10 mi
11:55 AM82 °FSunny.20 mph15%30.08 "Hg10 mi
11:15 AM82 °FSunny.14 mph14%30.10 "Hg10 mi
10:55 AM81 °FSunny.10 mph15%30.10 "Hg10 mi
10:15 AM81 °FSunny.9 mph15%30.12 "Hg10 mi
9:55 AM82 °FSunny.9 mph15%30.12 "Hg10 mi
9:35 AM81 °FSunny.10 mph15%30.12 "Hg10 mi
9:15 AM81 °FSunny.7 mph15%30.12 "Hg10 mi
8:55 AM79 °FSunny.9 mph15%30.13 "Hg10 mi
8:15 AM75 °FSunny.3 mph18%30.12 "Hg10 mi
7:55 AM73 °FSunny.6 mph17%30.12 "Hg10 mi
7:35 AM72 °FSunny.No wind19%30.11 "Hg10 mi
7:15 AM72 °FSunny.No wind16%30.11 "Hg10 mi
6:55 AM70 °FSunny.No wind17%30.11 "Hg10 mi
6:15 AM68 °FSunny.No wind17%30.10 "Hg10 mi
5:55 AM68 °FSunny.No wind17%30.10 "Hg10 mi
5:35 AM68 °FSunny.No wind16%30.10 "Hg10 mi
5:15 AM66 °FSunny.No wind18%30.09 "Hg10 mi
4:55 AM64 °FClear.No wind21%30.09 "Hg10 mi
4:35 AM64 °FClear.No wind21%30.09 "Hg10 mi
4:15 AM66 °FClear.No wind18%30.08 "Hg10 mi
3:55 AM68 °FClear.No wind17%30.08 "Hg10 mi
3:15 AM70 °FClear.No wind15%30.08 "Hg10 mi
2:55 AM70 °FClear.No wind15%30.08 "Hg10 mi
2:15 AM70 °FClear.3 mph15%30.09 "Hg10 mi
1:55 AM68 °FClear.3 mph17%30.09 "Hg10 mi
1:15 AM72 °FClear.5 mph14%30.09 "Hg10 mi
12:55 AM72 °FClear.6 mph15%30.09 "Hg10 mi
12:15 AM72 °FClear.7 mph14%30.09 "Hg10 mi
11:55 PM
Mon, Jun 1
72 °FClear.7 mph15%30.09 "Hg10 mi
11:35 PM72 °FClear.7 mph15%30.09 "Hg10 mi
11:15 PM72 °FClear.8 mph15%30.09 "Hg10 mi
10:55 PM73 °FClear.6 mph14%30.09 "Hg10 mi
10:35 PM73 °FClear.7 mph14%30.09 "Hg10 mi
10:15 PM73 °FClear.7 mph14%30.09 "Hg10 mi
9:55 PM75 °FClear.8 mph13%30.10 "Hg10 mi
9:35 PM75 °FClear.12 mph13%30.09 "Hg10 mi
9:15 PM77 °FClear.7 mph12%30.09 "Hg10 mi
8:15 PM79 °FClear.9 mph12%30.07 "Hg10 mi
7:55 PM79 °FClear.10 mph12%30.06 "Hg10 mi
7:15 PM79 °FSunny.9 mph13%30.06 "Hg10 mi
6:55 PM81 °FSunny.12 mph14%30.06 "Hg10 mi
6:15 PM82 °FSunny.18 mph11%30.05 "Hg10 mi
5:55 PM82 °FSunny.16 mph11%30.05 "Hg10 mi
5:35 PM86 °FSunny.13 mph11%30.05 "Hg10 mi
5:15 PM86 °FSunny.16 mph11%30.06 "Hg10 mi
4:55 PM86 °FSunny.20 mph10%30.06 "Hg10 mi
4:35 PM86 °FSunny.13 mph10%30.07 "Hg10 mi
4:15 PM88 °FSunny.13 mph11%30.06 "Hg10 mi
3:55 PM88 °FSunny.16 mph10%30.07 "Hg10 mi
3:15 PM88 °FSunny.14 mph10%30.07 "Hg10 mi
2:55 PM90 °FSunny.15 mph10%30.08 "Hg10 mi
2:15 PM88 °FSunny.17 mph9%30.08 "Hg10 mi
Weather by CustomWeather, © 2015

See weather overviewHow to use our weather pages